www.pogodaiklimat.ru

Погода и климат >> Архив погоды >> Норвегия >> Олесунн аэропорт


ПОГОДА в Олесунн аэропорту

  • Прогноз погоды в Олесунн аэропорту
  • Монитор погоды в Олесунн аэропорту

АРХИВ ПОГОДЫ в Олесунн аэропорту

Время (UTC), дата Ветер
(напр.,м/с)
 
Видим.   Явления Облачность Т
(С)
Тd
(С)
f
(%)
Тe
(С)
Тes
(С)
Комфортность P
(гПа)
Po
(гПа)
Тmin
(С)
Tmax
(С)
R
(мм)
R24
(мм)
S
(см)
22 15.07 СВ 4
{7}
н/о н/о +11.5 +10.9 96 +9 +9 1017.4 1014.8
23 15.07 СВ 5
{7}
н/о н/о +10.6 +9.5 93 +8 +8 1017.4 1014.8
00 16.07 СВ 3
{8}
н/о н/о +10.8 +9.4 91 +9 +9 1017.5 1014.9
01 16.07 СВ 5
{6}
н/о н/о +10.9 +9.0 88 +8 +8 1017.8 1015.2
02 16.07 СВ 4
{6}
н/о н/о +10.5 +8.3 86 +8 +8 1017.9 1015.3
03 16.07 СВ 3
{6}
н/о н/о +10.5 +8.6 88 +8 +8 1017.9 1015.3
04 16.07 СВ 4
{5}
н/о н/о +10.6 +8.7 88 +8 +8 1017.8 1015.2
05 16.07 СВ 4
{6}
н/о н/о +11.6 +9.0 84 +9 +9 1017.9 1015.3
06 16.07 СВ 5
{6}
65 км 3/3 1000 м
[Sc]
+12.0 +7.9 76 +10 +11 1017.7 1015.1 +10.3 +12.4 0.5
07 16.07 СВ 5
{7}
н/о н/о +12.0 +8.1 77 +10 +10 1017.7 1015.1
08 16.07 СВ 6
{8}
н/о н/о +12.7 +8.6 76 +10 +10 1017.5 1014.9
09 16.07 СВ 7
{8}
65 км 4/4 300 м
[Cu med, cong Ac cuf]
+12.5 +8.4 76 +10 +11 1017.2 1014.7
10 16.07 СВ 5
{8}
н/о н/о +13.4 +7.8 69 +12 +12 1016.8 1014.3
11 16.07 СВ 6
{8}
н/о н/о +14.5 +8.5 67 +13 +13 1016.6 1014.0
12 16.07 СВ 6
{8}
65 км 1/1 600 м
[Cu hum]
+14.8 +8.7 67 +13 +13 1016.5 1013.9
13 16.07 СВ 6
{9}
н/о н/о +14.9 +9.3 69 +13 +13 1016.2 1013.6
14 16.07 СВ 7
{11}
н/о н/о +14.7 +8.9 68 +13 +13 1015.8 1013.3
15 16.07 СВ 7
{10}
65 км 3/1 600 м
[Cu hum Ci fib]
+15.0 +8.9 67 +13 +15 1015.5 1012.9
16 16.07 СВ 7
{10}
н/о н/о +14.1 +9.1 72 +12 +12 1014.9 1012.4
17 16.07 СВ 7
{9}
н/о н/о +14.2 +9.4 73 +12 +12 1014.7 1012.1
18 16.07 СВ 6
{11}
65 км 3/0
[Ci fib]
+13.9 +8.9 72 +12 +12 1014.6 1012.0 +11.9 +15.5
19 16.07 СВ 5
{8}
н/о н/о +13.0 +9.3 78 +11 +11 1014.5 1011.9
20 16.07 СВ 5
{8}
н/о н/о +12.4 +9.2 81 +10 +10 1014.6 1012.0
21 16.07 СВ 6
{8}
н/о н/о +12.0 +9.4 84 +9 +9 1014.2 1011.6
22 16.07 СВ 6
{8}
н/о н/о +11.9 +9.8 87 +9 +9 1013.9 1011.3
23 16.07 СВ 5
{8}
н/о н/о +12.0 +9.7 86 +10 +10 1013.7 1011.2
00 17.07 СВ 4
{8}
н/о н/о +11.9 +9.5 85 +10 +10 1013.6 1011.1
01 17.07 СВ 5
{7}
н/о н/о +12.1 +9.5 84 +10 +10 1013.6 1011.0
02 17.07 СВ 4
{6}
н/о н/о +11.9 +9.6 86 +10 +10 1013.6 1011.0
03 17.07 В 3
{6}
н/о н/о +11.8 +10.1 89 +10 +10 1013.2 1010.7
04 17.07 СВ 4
{5}
н/о н/о +11.8 +10.2 90 +10 +10 1013.2 1010.6
05 17.07 СВ 4
{6}
н/о н/о +11.8 +10.6 92 +10 +10 1012.9 1010.3
06 17.07 СВ 4
{7}
50 км слаб. дождь 10/6 1000 м
[Sc Ac As]
+12.1 +10.5 90 +10 +10 1012.8 1010.3 +11.7 +14.0 0.1
07 17.07 В 3
{5}
н/о н/о +13.0 +10.9 87 +12 +12 1012.8 1010.2
08 17.07 СВ 3
{5}
н/о н/о +13.4 +10.9 85 +12 +12 1012.7 1010.2
09 17.07 СВ 4
{5}
65 км {дождь} 6/1 600 м
[Cu med, cong Ac trans Ci fib]
+14.9 +11.1 78 +14 +18 1012.5 1010.0
10 17.07 СВ 3
{5}
н/о н/о +14.6 +10.6 77 +14 +14 1012.6 1010.0
11 17.07 СВ 3
{5}
н/о н/о +15.7 +11.7 77 +15 +15 1012.3 1009.8
12 17.07 СВ 3
{5}
65 км {дождь} 8/1 600 м
[Cu med, cong Ac trans Ci fib]
+17.3 +12.2 72 +17 +23 1012.1 1009.6
13 17.07 СВ 3
{5}
н/о н/о +16.0 +11.4 74 +16 +16 1012.1 1009.5
14 17.07 СВ 3
{5}
н/о н/о +15.5 +11.3 76 +15 +15 1011.9 1009.3
15 17.07 СВ 3
{4}
60 км 9/3 1500 м
[Cu med, cong Ac cuf]
+16.8 +11.3 70 +17 +18 1011.5 1008.9
16 17.07 СВ 3
{5}
н/о н/о +15.2 +11.2 77 +15 +15 1011.2 1008.6
17 17.07 СВ 3
{4}
н/о н/о +16.3 +11.3 72 +16 +16 1011.0 1008.5
18 17.07 СВ 3
{5}
55 км 8/0 2000 м
[Ac cuf Cc]
+15.9 +11.3 74 +15 +16 1010.9 1008.3 +12.1 +17.5
19 17.07 В 1
{3}
н/о н/о +14.9 +10.9 77 +15 +15 1010.7 1008.1
20 17.07 СВ 2
{5}
н/о н/о +14.0 +10.8 81 +13 +13 1010.3 1007.8
21 17.07 СВ 1
{3}
н/о н/о +13.0 +11.2 89 +13 +13 1009.9 1007.4
22 17.07 СВ 1
{3}
н/о н/о +12.2 +10.9 92 +12 +12 1009.9 1007.3
23 17.07 СВ 1
{2}
н/о н/о +11.7 +10.6 93 +11 +11 1009.7 1007.1
00 18.07 В 1
{5}
н/о н/о +11.4 +10.5 94 +11 +11 1009.5 1006.9
01 18.07 ЮВ 2
{2}
н/о н/о +11.8 +10.4 91 +11 +11 1009.3 1006.7
02 18.07 ЮВ 2
{3}
н/о н/о +11.8 +10.4 91 +11 +11 1009.0 1006.4
03 18.07 ЮВ 2
{3}
н/о н/о +10.8 +9.1 89 +9 +9 1008.5 1005.9
04 18.07 ЮВ 2
{2}
н/о н/о +11.3 +10.2 93 +10 +10 1008.2 1005.6
05 18.07 В 3
{3}
н/о н/о +13.4 +10.4 82 +12 +12 1008.0 1005.4
06 18.07 СВ 2
{7}
60 км 4/0
[Ac lent Ci fib]
+15.0 +10.0 72 +15 +17 1007.5 1005.0 +10.5
07 18.07 В 3
{5}
н/о н/о +16.3 +9.7 65 +16 +16 1007.3 1004.7
08 18.07 СВ 2
{7}
н/о н/о +16.4 +11.4 72 +17 +17 1007.1 1004.6
09 18.07 СВ 4
{7}
55 км 9/0
[Ac lent Cs]
+16.5 +10.8 69 +16 +20 1006.8 1004.2
10 18.07 СВ 3
{6}
н/о н/о +16.9 +10.7 67 +17 +17 1006.6 1004.1
11 18.07 СЗ 3
{5}
н/о н/о +17.9 +11.5 66 +18 +18 1006.6 1004.1
12 18.07 В 2
{7}
55 км 6/1 1000 м
[Cu hum Ac cuf Ci fib]
+19.1 +11.4 61 +21 +29 комфорт 1006.6 1004.1
13 18.07 ЮЗ 4
{6}
н/о н/о +19.0 +13.0 68 +20 +20 1006.6 1004.1
14 18.07 СЗ 4
{7}
н/о н/о +16.9 +12.2 74 +16 +16 1006.8 1004.2
15 18.07 З 4
{6}
55 км 10/0
[Ac As Cs]
+15.0 +12.7 86 +14 +17 1007.0 1004.4
16 18.07 СЗ 4
{6}
н/о н/о +14.9 +12.4 85 +14 +14 1007.3 1004.7
17 18.07 СЗ 1
{5}
н/о н/о +14.9 +12.0 83 +15 +15 1007.2 1004.6
18 18.07 С 1
{7}
55 км {морось} 10/4 1500 м
[Sc Ac As Cs]
+14.9 +12.2 84 +15 +16 1006.9 1004.3 +14.5 +21.1
19 18.07 В 2
{2}
н/о н/о +14.7 +12.6 87 +14 +14 1006.7 1004.2
20 18.07 В 3
{4}
н/о н/о +14.6 +12.3 86 +14 +14 1006.6 1004.1
21 18.07 СВ 3
{5}
н/о н/о +14.3 +12.2 87 +13 +13 1006.8 1004.3
22 18.07 СВ 4
{6}
н/о н/о +13.8 +12.0 89 +12 +12 1006.9 1004.4
23 18.07 СВ 2
{5}
н/о н/о +13.7 +12.3 91 +13 +13 1006.6 1004.0
00 19.07 В 3
{6}
н/о н/о +13.9 +12.8 93 +13 +13 1006.2 1003.7
01 19.07 СВ 2
{4}
н/о н/о +14.2 +12.6 90 +14 +14 1006.1 1003.6
02 19.07 ЮВ 2
{4}
н/о н/о +14.1 +12.8 92 +14 +14 1006.0 1003.4
03 19.07 В 2
{3}
н/о н/о +14.3 +12.7 90 +14 +14 1006.0 1003.5
04 19.07 В 1
{3}
н/о н/о +14.2 +12.9 92 +14 +14 1005.8 1003.3
05 19.07 ЮВ 2
{3}
н/о н/о +14.6 +13.3 92 +14 +14 1006.0 1003.5
06 19.07 З 5
{8}
45 км {дождь} 10/6 300 м
[Cu Sc Ac As]
+13.8 +12.7 93 +12 +12 1006.9 1004.3 +13.6 +15.0 0.5
07 19.07 С 1
{5}
н/о н/о +14.1 +12.8 92 +14 +14 1007.5 1005.0
08 19.07 СЗ 2
{4}
н/о н/о +14.3 +12.9 91 +14 +14 1008.1 1005.5
09 19.07 З 4
{6}
55 км в посл. час дождь 9/5 300 м
[Sc Ac As]
+13.8 +12.5 92 +12 +14 1008.5 1005.9
10 19.07 З 4
{7}
н/о н/о +14.5 +12.7 89 +13 +13 1009.0 1006.4
11 19.07 З 5
{7}
н/о н/о +16.2 +12.4 78 +15 +15 1009.2 1006.6
12 19.07 З 4
{7}
40 км осадки на расстоянии 9/6 300 м
[Cu med, cong Ac cuf]
+15.2 +11.6 79 +14 +16 1009.7 1007.2
13 19.07 СЗ 4
{6}
н/о н/о +15.9 +11.9 77 +15 +15 1010.1 1007.5
14 19.07 СЗ 3
{6}
н/о н/о +16.8 +11.9 73 +17 +17 1010.3 1007.8
15 19.07 СЗ 3
{5}
55 км 6/3 600 м
[Cu med, cong Ac cuf Ci fib]
+17.3 +11.8 70 +17 +21 1010.5 1008.0
17 19.07 СВ 4
{6}
н/о н/о +16.7 +12.1 74 +16 +16 1010.6 1008.0
18 19.07 СВ 4
{6}
60 км 3/1 600 м
[Cb cap Ac cuf Ci fib]
+15.0 +12.0 82 +14 +15 1010.6 1008.0 +13.5 +17.8
19 19.07 СВ 5
{7}
н/о н/о +14.8 +11.8 82 +13 +13 1010.6 1008.1
20 19.07 СВ 4
{6}
н/о н/о +14.1 +12.2 88 +13 +13 1010.8 1008.2
21 19.07 СВ 4
{6}
н/о н/о +13.3 +11.9 91 +12 +12 1010.9 1008.3
22 19.07 СВ 3
{6}
н/о н/о +12.6 +11.5 93 +11 +11 1011.2 1008.6
23 19.07 В 3
{4}
н/о н/о +12.5 +11.7 95 +11 +11 1011.1 1008.5
00 20.07 В 1
{7}
н/о н/о +12.8 +11.9 94 +13 +13 1011.4 1008.8
01 20.07 Ю 2
{3}
н/о н/о +13.3 +12.4 94 +12 +12 1011.4 1008.8
02 20.07 ЮВ 3
{4}
н/о н/о +12.0 +11.2 95 +10 +10 1011.4 1008.8
03 20.07 ЮВ 3
{4}
н/о н/о +11.2 +10.6 96 +9 +9 1011.2 1008.6
04 20.07 ЮВ 2
{3}
н/о н/о +12.2 +11.6 96 +11 +11 1011.0 1008.4
05 20.07 ЮВ 2
{4}
н/о н/о +14.0 +12.9 93 +13 +13 1010.7 1008.2
06 20.07 В 2
{4}
60 км 4/1 200 м
[St Ci fib]
+14.7 +12.9 89 +14 +17 1010.4 1007.9 +10.8 +15.4 0.1
07 20.07 В 2
{3}
н/о н/о +16.4 +12.8 79 +17 +17 1010.2 1007.7
08 20.07 СВ 4
{7}
н/о н/о +16.1 +13.8 86 +15 +15 1009.9 1007.4
09 20.07 В 5
{8}
60 км 4/0
[Ac lent Cc]
+16.6 +13.0 79 +16 +20 1009.8 1007.3
10 20.07 СВ 6
{9}
н/о н/о +17.4 +13.3 77 +17 +17 1009.2 1006.7
11 20.07 СВ 6
{8}
н/о н/о +17.7 +13.2 75 +17 +17 1008.6 1006.1
12 20.07 СВ 6
{9}
50 км 8/1 1000 м
[Sc diur, vesp Ac lent Cs]
+18.3 +13.6 74 +18 +21 1008.2 1005.7
13 20.07 СВ 6
{9}
н/о н/о +18.5 +14.2 76 +19 +19 1007.7 1005.2
14 20.07 СВ 7
{9}
н/о н/о +18.0 +14.1 78 +17 +17 1007.2 1004.7
15 20.07 СВ 6
{9}
40 км слаб. дождь 10/5 1500 м
[Sc Ac As]
+18.1 +13.8 76 +18 +18 1007.2 1004.7
16 20.07 СВ 4
{8}
н/о н/о +19.4 +13.4 68 +21 +21 комфорт 1007.0 1004.5
17 20.07 штиль 0
{6}
н/о н/о +17.4 +14.1 81 +17 +17 1007.0 1004.4
18 20.07 СЗ 1
{9}
40 км в посл. час дождь 10/8 1000 м
[Sc Ac As]
+16.7 +14.7 88 +18 +18 1006.8 1004.3 +14.7 +19.4
19 20.07 З 1
{2}
н/о н/о +16.4 +14.8 90 +17 +17 1006.7 1004.2
20 20.07 С 1
{2}
н/о н/о +16.4 +14.9 91 +17 +17 1006.8 1004.3
21 20.07 штиль 0
{2}
н/о н/о +15.4 +13.9 91 +15 +15 1006.8 1004.2
22 20.07 ЮЗ 1
{3}
н/о н/о +14.8 +13.7 93 +15 +15 1006.7 1004.2
23 20.07 СЗ 1
{3}
н/о н/о +14.9 +14.1 95 +15 +15 1006.6 1004.1
00 21.07 Ю 1
{3}
н/о н/о +14.7 +13.9 95 +15 +15 1006.4 1003.9
01 21.07 З 1
{2}
н/о н/о +14.5 +13.9 96 +15 +15 1006.2 1003.7
02 21.07 С 1
{2}
н/о н/о +14.2 +13.6 96 +14 +14 1006.4 1003.8
03 21.07 СВ 1
{2}
н/о н/о +14.3 +13.5 95 +15 +15 1006.4 1003.8
04 21.07 СВ 1
{3}
н/о н/о +14.1 +13.5 96 +14 +14 1006.2 1003.7
05 21.07 В 2
{3}
н/о н/о +14.6 +13.8 95 +14 +14 1006.4 1003.9
06 21.07 В 2
{3}
25 км в посл. час дождь 10/10 1000 м
[Sc]
+15.1 +14.0 93 +15 +15 1006.6 1004.1 +14.1 +17.1 1
07 21.07 ЮВ 2
{2}
н/о н/о +15.4 +14.4 94 +15 +15 1006.5 1004.0
08 21.07 ЮВ 2
{6}
н/о н/о +15.6 +14.1 91 +15 +15 1006.5 1004.0
09 21.07 В 2
{3}
55 км 9/5 1000 м
[Cu Sc Ac As Cs]
+16.1 +14.3 89 +16 +19 1006.7 1004.2
10 21.07 СВ 2
{3}
н/о н/о +17.2 +15.2 88 +18 +18 1007.2 1004.7
11 21.07 СЗ 3
{4}
н/о н/о +16.6 +14.4 87 +16 +16 1007.8 1005.3
12 21.07 З 4
{6}
30 км 10/9 200 м
[Cu med, cong]
+16.4 +14.4 88 +16 +16 1008.2 1005.7
13 21.07 З 3
{5}
н/о н/о +15.5 +14.0 91 +15 +15 1008.7 1006.2
14 21.07 З 5
{7}
н/о н/о +14.7 +14.1 96 +13 +13 1009.3 1006.7
15 21.07 З 5
{8}
28 км в посл. час ливневой дождь 10/9 200 м
[Cu med, cong]
+14.4 +13.9 97 +13 +13 1009.8 1007.2
16 21.07 З 10
{13}
н/о н/о +13.4 +12.9 97 +10 +10 1010.4 1007.8
17 21.07 З 6
{12}
н/о н/о +13.5 +12.4 93 +11 +11 1011.5 1008.9
18 21.07 ЮЗ 7
{13}
35 км {ливн. осадки} 10/8 200 м
[Cu med, cong Ac cuf]
+13.6 +11.8 89 +11 +11 1012.5 1010.0 +13.1 +17.7
19 21.07 ЮЗ 9
{11}
н/о н/о +13.9 +11.3 84 +11 +11 1013.0 1010.4
20 21.07 ЮЗ 7
{11}
н/о н/о +13.4 +10.9 85 +11 +11 1013.2 1010.6
21 21.07 З 5
{10}
н/о н/о +12.9 +10.3 84 +11 +11 1013.4 1010.8
22 21.07 ЮЗ 3
{6}
н/о н/о +12.6 +9.8 83 +11 +11 1014.0 1011.4
23 21.07 ЮЗ 4
{6}
н/о н/о +12.3 +9.9 85 +10 +10 1014.5 1011.9
00 22.07 ЮЗ 4
{11}
н/о н/о +13.3 +9.7 79 +12 +12 1014.3 1011.7
01 22.07 Ю 3
{6}
н/о н/о +12.1 +9.0 81 +11 +11 1014.1 1011.5
02 22.07 Ю 2
{4}
н/о н/о +10.3 +8.6 89 +9 +9 1014.0 1011.4
03 22.07 ЮВ 2
{3}
н/о н/о +9.5 +8.7 95 +8 +8 1013.5 1010.9
04 22.07 ЮВ 3
{4}
н/о н/о +11.4 +10.3 93 +9 +9 1013.4 1010.8
05 22.07 В 3
{4}
н/о н/о +13.1 +11.0 87 +12 +12 1013.0 1010.4
06 22.07 ЮВ 2
{8}
65 км 3/0
[Ci sp]
+14.5 +9.7 73 +14 +17 1012.5 1009.9 +8.9 +14.5
07 22.07 ЮВ 2
{5}
н/о н/о +14.9 +9.7 71 +15 +15 1012.1 1009.6
08 22.07 В 2
{4}
н/о н/о +16.2 +9.6 65 +16 +16 1011.8 1009.3
09 22.07 В 4
{5}
65 км 6/0
[Ac lent Cs]
+17.0 +11.5 70 +17 +21 1011.3 1008.8
10 22.07 СВ 5
{6}
н/о н/о +18.0 +11.6 66 +18 +18 1011.1 1008.5
11 22.07 СВ 4
{6}
н/о н/о +18.6 +12.4 67 +19 +19 1010.6 1008.1
12 22.07 СВ 5
{7}
65 км 10/3 1500 м
[Sc Ac lent Cs]
+18.6 +12.6 68 +19 +21 1010.4 1007.9
13 22.07 СВ 4
{6}
н/о н/о +18.7 +12.0 65 +19 +19 1010.1 1007.6
14 22.07 СВ 4
{5}
н/о н/о +18.3 +11.4 64 +18 +18 1009.7 1007.2
15 22.07 СВ 3
{5}
60 км 10/4 1500 м
[Sc Ac As Cs]
+18.4 +11.2 63 +19 +21 1009.2 1006.6
16 22.07 СВ 3
{5}
н/о н/о +17.6 +11.9 69 +18 +18 1009.2 1006.7
17 22.07 С 2
{4}
н/о н/о +16.9 +12.9 77 +17 +17 1009.3 1006.8
18 22.07 СВ 3
{6}
23 км слаб. дождь 10/10 1000 м
[Sc]
+15.5 +12.6 83 +15 +15 1009.1 1006.5 +14.1 +19.1
19 22.07 СВ 4
{5}
н/о н/о +15.3 +12.6 84 +14 +14 1009.1 1006.6
20 22.07 С 2
{4}
н/о н/о +15.0 +12.9 87 +15 +15 1009.1 1006.5
21 22.07 ЮВ 2
{2}
н/о н/о +14.6 +12.5 87 +14 +14 1009.6 1007.0

 

Местоположение метеостанции Олесунн аэропорт (Норвегия): широта 62.57 долгота 6.12 высота над уровнем моря 22 м.

В архиве по умолчанию представлена погода в Олесунн аэропорту за последнюю неделю. Архивные данные за месяц целиком и за предыдущие месяцы, начиная с января 2011 года, Вы можете получить, выбрав интересующий диапазон дат из раскрывающегося списка и нажав кнопку "Ввод!".


*Определитесь, кто Вы:
робот инопланетянин человек

Внимание! Время в таблицах - всемирное. Для получения местного времени необходимо прибавить поправку, которая равна 1 ч.

Смотрите также архив погоды в соседних городах и на ближайших метеорологических станциях:

Погода в Олесунне (Норвегия) (12 км)
Погода в Рекдале (Норвегия) (34 км)
Погода в Она (Норвегия) (39 км)
Погода в Лебергсфелле (Норвегия) (39 км)
Погода в Аэропорту Орста-Волда (Норвегия) (43 км)
Погода на Маяке Svinoy (Норвегия) (51 км)
Погода в Берген аэропорту (Норвегия) (55 км)
Погода в Фиске (Норвегия) (59 км)
Погода в Молдэ аэропорту (Норвегия) (62 км)
Погода в Стрын-Крокене (Норвегия) (76 км)

Пояснения к столбцам:

Ветер - указаны скорость ветра в м/с - средняя за 10 мин, порывы в срок и между сроками (в фигурных скобках) и направление, откуда дует ветер: С - северный, СВ - северо-восточный, В - восточный, ЮВ - юго-восточный, Ю - южный, ЮЗ - юго-западный, З - западный, СЗ - северо-западный.
Видимость - горизонтальная дальность видимости в метрах или километрах. При видимости от 1 до 10 км при отсутствии осадков обычно наблюдается дымка, при ухудшении видимости до 1 км и менее - туман. В сухую погоду видимость может ухудшаться дымом, пылью или мглою.
Явления - указаны атмосферные явления, наблюдавшиеся в срок или в последний час перед сроком; фигурными скобками обозначены явления, наблюдавшиеся между сроками (за 1-3 часа до срока); квадратными скобками обозначены град или гололедные отложения с указанием их диаметра в мм.
Облачность - указаны через наклонную черту общая и нижняя облачность в баллах и высота нижней границы облаков в метрах; квадратными скобками обозначены формы облаков: Ci - перистые, Cs - перисто-слоистые, Cc - перисто-кучевые, Ac - высококучевые, As - высокослоистые, Sc - слоисто-кучевые, Ns - слоисто-дождевые, Cu - кучевые, Cb - кучево-дождевые. Подробнее классификацию облаков см. в Атласе облаков (PDF).
T - Температура воздуха - температура, измеренная на высоте 2 м над землей.
Td - Температура точки росы - температура, при понижении до которой содержащийся в воздухе водяной пар достигнет насыщения.
f - Относительная влажность воздуха - влажноcть воздуха, измеренная на высоте 2 м над землей.
Te - Эффективная температура - температура, которую ощущает одетый по сезону человек в тени. Характеристика душности погоды. При расчете учитывается влияние влажности воздуха и скорости ветра на теплоощущения человека.
Tes - Эффективная температура на солнце - температура, которую ощущает человек, с поправкой на солнечный нагрев. Характеристика знойности погоды. Зависит от высоты солнца над горизонтом, облачности и скорости ветра. Ночью, в пасмурную погоду, а также при ветре 12 м/с и более поправка равна нулю.
P - Атмосферное давление - приведенное к уровню моря атмосферное давление.
Po - Атмосферное давление - измеренное на уровне метеостанции атмосферное давление.
Tmin - Минимальная температура - минимум температуры воздуха на высоте 2 м над землей.
Tmax - Максимальная температура - максимум температуры воздуха на высоте 2 м над землей.
R - Количество осадков - Количество выпавших осадков за период времени, мм. При наведении курсора мыши на число - период времени, за который выпало указанное количество осадков.
R24 - Количество осадков - Количество выпавших осадков за 24 часа, мм.
S - Снежный покров - Высота снежного покрова, см. При наведении курсора мыши на число - состояние снежного покрова и степень покрытия местности в баллах.